Location: Newark
(44.3681°N, 100.3364°W)
Time: 10:09:52
(UTC+00:00)

S-56A Canister/Altair - Pass Details

Date: 01 March 2020
Orbit: 634 x 2498 km, 38.9° (Epoch: 28 March)

Event Time Altitude Azimuth Distance (km) Brightness Sun altitude
Rises 23:09:57 0° 281° (W) 6,178 13.1 12.9°
Reaches altitude 10° 23:16:55 10° 261° (W) 5,060 13.8 11.7°
Maximum altitude 23:23:09 14° 235° (SW) 4,492 13.5 10.7°
Drops below altitude 10° 23:28:53 10° 208° (SSW) 4,549 12.3 9.8°
Sets 23:34:33 0° 186° (S) 5,171 12.1 8.8°
